Location: Benque
(43.2594°N, 0.9178°E)
Time: 14:27:31
(UTC+00:00)

BREEZE-M DEB (TANK) - Pass Details

Date: 24 January 2020
Orbit: 323 x 14856 km, 49.5° (Epoch: 22 February)

Event Time Altitude Azimuth Distance (km) Brightness Sun altitude
Rises 18:29:51 0° 255° (WSW) 2,239 7.9 -16.8°
Reaches altitude 10° 18:31:46 10° 263° (W) 1,246 6.2 -17.2°
Maximum altitude 18:33:57 47° 340° (NNW) 465 2.7 -17.6°
Enters shadow 18:34:14 44° 5° (N) 496 2.6 -17.6°
